{"data":{"norad_id":68559,"intl_designator":"2026-070T","name":"STARLINK-37294","alt_names":[],"object_type":"PAYLOAD","status":"ACTIVE","operator":null,"country":"US","launch_date":"2026-04-02","launch_site_code":"AFETR","launch_vehicle":null,"mission":null,"orbit_class":"UNKNOWN","rcs_meters":null,"size_class":null,"mass_kg":null,"dimensions":null,"purposes":["comms"],"wikipedia_slug":null,"has_3d_model":false,"image_url":null,"decayed_at":null,"tle_current":{"epoch":"2026-05-25T04:00:03.998880Z","epoch_age_seconds":56780,"freshness":"FRESH","line1":"1 68559U 26070T   26145.16671295  .00008695  00000+0  26828-3 0  9999","line2":"2 68559  53.1585   6.7395 0000875  89.1043 226.9195 15.34385184  6010","mean_motion":15.34385184,"eccentricity":8.75e-5,"inclination_deg":53.1585,"raan_deg":6.7395,"arg_perigee_deg":89.1043,"mean_anomaly_deg":226.9195,"bstar":0.00026828,"rev_number":601,"period_min":93.848664273859,"perigee_km":462.14869946156,"apogee_km":463.34585421,"semimajor_km":6840.8842768358,"source":"CELESTRAK","updated_at":"2026-05-25T13:38:21.963145Z"}}}